Home > Weather > Herten > Past weeks

Flag for Germany Past Weather in Herten, North Rhine-Westphalia, Germany — Yesterday and Last 2 Weeks

Now
55 °F

Partly sunny.


Feels Like: 54 °F
Forecast: 47 / 68 °F
Wind: 7 mph from Southwest

Location: Dortmund / Wickede

Current Time: May 26, 2016 at 12:48:12 AM

Latest Report: May 25, 2016 at 9:50 PM


Visibility: N/A

Pressure: 30.01 "Hg

Humidity: 72%

Dew Point: 46 °F

Location of HertenLocation

Past Weather in Herten — Graph

°F

Herten Temperature Yesterday

Maximum temperature yesterday: 61 °F (at 4:50 PM)
Minimum temperature yesterday: 48 °F (at 5:20 AM)
Average temperature yesterday: 54 °F

High & Low Weather Summary for the Past Weeks

 TemperatureHumidityPressure
High75 °F (May 12, 2:50 PM)94% (May 23, 6:50 PM)30.12 "Hg (May 23, 6:50 PM)
Low39 °F (May 15, 5:20 AM)29% (May 12, 2:50 PM)29.50 "Hg (May 12, 1:50 PM)
Average57 °F62%29.88 "Hg
* Reported May 10 9:20 PM — May 25 9:50 PM, Herten, Weather by CustomWeather, © 2016

Note: Actual official high and low records may vary slightly from our data, if they occured in-between our weather recording intervals... More about our weather records

Advertising

Herten Weather History for the Previous 24 Hours

Scroll right to see more
 ConditionsComfort  
Time TempWeatherWind HumidityBarometerVisibility
9:50 PM
Wed, May 25
55 °FPartly sunny.7 mph72%30.01 "HgN/A
9:20 PM57 °FPartly sunny.7 mph67%29.98 "HgN/A
8:50 PM57 °FPartly sunny.6 mph67%29.98 "HgN/A
8:20 PM57 °FPartly sunny.7 mph67%29.98 "HgN/A
7:50 PM59 °FPartly sunny.6 mph63%29.98 "HgN/A
7:20 PM59 °FPartly sunny.6 mph59%29.98 "HgN/A
6:50 PM59 °FPartly sunny.6 mph59%29.98 "HgN/A
6:20 PM59 °FPartly sunny.7 mph59%29.98 "HgN/A
5:50 PM61 °FPartly sunny.6 mph59%29.98 "HgN/A
5:20 PM59 °FScattered clouds.3 mph59%29.98 "HgN/A
4:50 PM61 °FPartly sunny.5 mph59%29.98 "HgN/A
4:20 PM59 °FPartly sunny.5 mph59%29.98 "HgN/A
3:50 PM59 °FPartly sunny.3 mph59%29.98 "HgN/A
3:20 PM57 °FPartly sunny.3 mph59%29.98 "HgN/A
2:50 PM59 °FPartly sunny.2 mph59%29.98 "HgN/A
2:20 PM55 °FPartly sunny.3 mph63%29.98 "HgN/A
1:50 PM55 °FPartly sunny.5 mph67%30.01 "HgN/A
1:20 PM54 °FPartly sunny.5 mph72%29.98 "Hg6 mi
12:50 PM54 °FPartly sunny.5 mph72%30.01 "Hg6 mi
12:20 PM54 °FPartly sunny.6 mph72%30.01 "Hg4 mi
11:50 AM54 °FPartly sunny.3 mph72%30.01 "Hg5 mi
11:20 AM52 °FPartly sunny.6 mph77%30.01 "Hg4 mi
10:50 AM52 °FPartly sunny.7 mph77%30.01 "Hg4 mi
10:20 AM50 °FPartly sunny.7 mph82%30.01 "Hg4 mi
9:50 AM50 °FPartly sunny.5 mph82%30.01 "Hg4 mi
9:20 AM50 °FPartly sunny.5 mph82%30.01 "Hg4 mi
8:50 AM50 °FPartly sunny.5 mph82%30.01 "Hg4 mi
8:20 AM50 °FPartly sunny.5 mph82%29.98 "Hg4 mi
7:50 AM50 °FDrizzle. Partly sunny.5 mph82%29.98 "Hg4 mi
7:20 AM48 °FDrizzle. Partly sunny.1 mph87%29.98 "Hg4 mi
6:50 AM48 °FDrizzle. Partly sunny.No wind87%29.98 "Hg4 mi
6:20 AM48 °FPassing clouds.1 mph87%29.98 "Hg4 mi
5:50 AM48 °FPassing clouds.2 mph87%29.98 "Hg4 mi
5:20 AM48 °FPassing clouds.2 mph87%29.98 "Hg4 mi
Weather by CustomWeather, © 2016

See weather overviewHow to use our weather pages